#timestamp,LO_Frequency,Hit,StdDev 
1679004015.3,286046964.4,N
1679004035.2,286046962.7,N
1679004055.0,286046956.7,N
1679004055.9,286046956.7,N
1679004075.8,286046953.1,N
1679004095.6,286046946.1,N
1679004115.4,286046941.8,N
1679004135.3,286046938.2,N
1679004155.1,286046931.0,N
1679004175.8,286046934.6,N
1679004195.7,286046932.5,N
1679004215.5,286046931.8,N
1679004235.4,286046935.8,N
1679004255.2,286046938.7,N
1679004275.0,286046935.6,N
1679004275.9,286046935.6,N
1679004295.8,286046939.0,N
1679004315.6,286046932.2,N
1679004335.4,286046928.1,N
1679004355.3,286046928.7,N
1679004375.1,286046926.1,N
1679004395.9,286046933.1,N
1679004415.7,286046935.6,N
1679004435.5,286046938.8,Y
1679004455.4,286046986.2,P
1679004475.2,286046989.9,N
1679004495.0,286046983.7,N
1679004496.0,286046983.7,N
1679004515.8,286046989.3,N
1679004535.6,286046990.5,N
1679004555.5,286046992.0,N
1679004575.3,286046996.3,N
1679004595.1,286046996.9,N
1679004615.9,286046999.6,N
1679004635.7,286046998.2,N
1679004655.6,286047005.7,N
1679004675.4,286046999.4,N
1679004695.2,286046993.2,N
1679004715.1,286046987.2,N
1679004716.0,286046987.2,N
1679004735.8,286046984.6,N
1679004755.6,286046985.4,N
1679004775.5,286046986.6,N
1679004795.3,286046989.5,N
1679004815.2,286046988.8,N
1679004835.9,286046992.3,N
1679004855.7,286046995.3,N
1679004875.6,286046996.9,N
1679004895.4,286046999.0,N
1679004915.2,286047002.0,N
1679004935.1,286047005.7,N
1679004936.0,286047005.7,N
1679004955.8,286047003.3,N
1679004975.7,286047007.5,N
1679004995.5,286047005.5,N
1679005015.3,286047007.3,N
1679005035.2,286047009.0,N
1679005055.0,286047010.8,N
1679005055.9,286047010.8,N
1679005075.8,286047010.5,N
1679005125.6,286047010.5,E
1679005135.5,286047004.7,N
1679005155.4,286046999.2,P
1679005175.2,286046999.4,N
1679005195.0,286046995.5,N
1679005195.9,286046995.5,N
1679005215.8,286046997.1,N
1679005235.6,286046996.8,N
1679005255.5,286046996.3,N
1679005275.3,286046996.8,N
1679005295.1,286047000.2,N
1679005315.9,286046996.6,N
1679005335.7,286046997.1,N
1679005355.5,286046997.3,N
1679005375.4,286046999.0,N
1679005395.2,286046995.1,N
1679005415.1,286046996.2,N
1679005416.0,286046996.2,N
1679005435.8,286046994.1,N
1679005455.6,286046994.2,N
1679005475.5,286046996.1,N
1679005495.3,286046997.5,N
1679005515.1,286047000.0,N
1679005535.9,286046999.1,N
1679005555.7,286046997.4,N
1679005575.5,286046999.5,N
1679005595.4,286046998.4,N
1679005615.2,286046998.9,N
1679005635.1,286046993.3,Y
1679005636.0,286046993.3,P
1679005655.8,286046998.2,N
1679005675.6,286047001.2,N
1679005695.5,286047002.5,N
1679005715.3,286046999.0,N
1679005735.2,286046996.6,N
1679005755.9,286047000.6,N
1679005775.7,286046998.1,N
1679005795.6,286047004.0,N
1679005815.4,286047003.4,N
1679005835.2,286046996.7,N
1679005855.1,286046995.0,N
1679005856.0,286046995.0,N
1679005875.8,286046996.2,N
1679005895.7,286046997.1,N
1679005915.5,286046993.7,N
1679005935.3,286046997.8,N
1679005955.2,286046999.4,N
1679005975.9,286046989.3,Y
1679005995.7,286046991.2,P
1679006015.6,286046997.4,N
1679006035.4,286047002.0,N
1679006055.3,286047004.9,N
1679006075.1,286047001.8,N
1679006076.0,286047001.8,N
1679006095.8,286047004.2,N
1679006115.7,286047003.2,N
1679006135.5,286047003.2,N
1679006155.3,286046999.7,N
1679006175.2,286047000.0,N
1679006195.0,286046999.5,N
1679006195.9,286046999.5,N
1679006215.8,286047000.6,N
1679006235.6,286047000.8,N
1679006255.4,286046997.0,N
1679006275.3,286046999.1,N
1679006295.1,286046998.6,N
1679006315.8,286047004.1,N
1679006335.7,286047004.0,N
1679006355.5,286047001.3,N
1679006375.4,286047005.5,N
1679006395.2,286047003.1,N
1679006415.1,286047002.2,N
1679006416.0,286047002.2,N
1679006435.8,286047004.3,N
1679006455.6,286047002.5,N
1679006475.5,286046999.7,N
1679006495.3,286046996.9,N
1679006515.1,286047001.2,N
1679006535.9,286047000.6,N
1679006555.7,286047002.6,N
1679006575.6,286047003.8,N
1679006595.4,286047005.9,N
1679006615.2,286047003.3,N
1679006635.1,286047005.2,N
1679006636.0,286047005.2,N
1679006655.8,286047009.0,Y
1679006675.6,286047008.6,P
1679006695.5,286047010.5,P
1679006715.3,286047012.4,P
1679006735.2,286047008.4,N
1679006755.9,286047012.1,Y
1679006775.7,286047004.2,P
1679006795.6,286047004.2,N
1679006815.4,286047003.7,N
1679006835.2,286047001.5,N
1679006855.1,286046993.6,N
1679006856.0,286046993.6,N
1679006875.8,286046994.8,N
1679006895.7,286046996.0,N
1679006915.5,286046997.2,N
1679006935.3,286046998.7,N
1679006955.2,286047002.5,N
1679006975.0,286047000.4,N
1679006975.9,286047000.4,N
1679006995.8,286047001.2,N
1679007015.6,286046996.7,N
1679007035.4,286046999.1,N
1679007055.3,286046996.9,N
1679007075.1,286046995.6,N
1679007095.8,286046998.0,N
1679007115.7,286046995.4,N
1679007135.5,286046995.3,N
1679007155.4,286046995.4,N
1679007175.2,286046998.0,N
1679007195.0,286046996.1,N
1679007195.9,286046996.1,N
1679007215.8,286046996.2,N
1679007235.6,286046995.2,N
1679007255.4,286046995.4,N
1679007275.3,286046993.6,N
1679007295.1,286046995.8,N
1679007315.9,286046998.4,N
1679007335.7,286047001.7,N
1679007355.5,286047005.7,N
1679007375.4,286047005.4,N
1679007395.2,286047004.8,N
1679007415.0,286047006.8,N
1679007416.0,286047006.8,N
1679007435.8,286047011.9,Y
1679007455.6,286047011.2,P
1679007475.5,286047009.9,N
1679007495.3,286047007.4,N
1679007515.1,286047006.0,N
1679007535.9,286047005.0,N
1679007555.7,286047007.6,N
1679007575.6,286047005.7,N
1679007595.4,286047007.0,N
